This is the latest recevied weather packets stored in our database for station/object N2PPN. If no packets are shown the sender has not sent any weather packets the latest 10 day(s).
| Time | Temp. | Humidity | Pressure | Rain* | Wind** | Luminosity | Snow |
|---|---|---|---|---|---|---|---|
| 1777498241 | 10° C | 88% | 1015.5 hPa | 0 mm | - | 118 W/m² | - |
| 1777495207 | 11.11° C | 85% | 1016.2 hPa | 0 mm | - | 232 W/m² | - |
| 1777494298 | 11.11° C | 84% | 1015.8 hPa | 0 mm | - | 285 W/m² | - |
| 1777493994 | 11.11° C | 84% | 1016.2 hPa | 0 mm | - | 285 W/m² | - |
| 1777493086 | 10° C | 87% | 1016.3 hPa | 0 mm | - | 291 W/m² | - |
| 1777491267 | 10.56° C | 87% | 1017.3 hPa | 0 mm | - | 315 W/m² | - |
| 1777490962 | 10.56° C | 86% | 1017.3 hPa | 0 mm | - | 339 W/m² | - |
| 1777490658 | 11.11° C | 84% | 1017.4 hPa | 0 mm | - | 403 W/m² | - |
| 1777490354 | 10.56° C | 86% | 1017.6 hPa | 0 mm | - | 382 W/m² | - |
| 1777489749 | 10.56° C | 84% | 1017.6 hPa | 0 mm | - | 286 W/m² | - |
| 1777489447 | 11.67° C | 81% | 1018.1 hPa | 0 mm | - | 267 W/m² | - |
| 1777487934 | 11.67° C | 82% | 1018.1 hPa | 0 mm | - | 439 W/m² | - |
| 1777487327 | 11.67° C | 80% | 1017.6 hPa | 0 mm | - | 534 W/m² | - |
| 1777487025 | 11.67° C | 80% | 1017.7 hPa | 0 mm | - | 529 W/m² | - |
| 1777486721 | 12.22° C | 78% | 1017.7 hPa | 0 mm | - | 536 W/m² | - |
| 1777486116 | 12.78° C | 77% | 1018 hPa | 0 mm | - | 692 W/m² | - |
| 1777485813 | 12.78° C | 75% | 1018.1 hPa | 0 mm | - | 689 W/m² | - |
| 1777485508 | 12.78° C | 75% | 1018 hPa | 0 mm | - | 666 W/m² | - |
| 1777484295 | 12.22° C | 77% | 1018 hPa | 0 mm | - | 697 W/m² | - |
| 1777483991 | 12.78° C | 74% | 1017.9 hPa | 0 mm | - | 661 W/m² | - |
| 1777483687 | 12.78° C | 76% | 1017.9 hPa | 0 mm | - | 709 W/m² | - |
| 1777483383 | 12.78° C | 75% | 1018 hPa | 0 mm | - | 738 W/m² | - |
| 1777482776 | 12.78° C | 73% | 1018 hPa | 0 mm | - | 348 W/m² | - |
| 1777482471 | 13.33° C | 73% | 1017.9 hPa | 0 mm | - | 463 W/m² | - |
| 1777481866 | 12.78° C | 75% | 1018.1 hPa | 0 mm | - | 655 W/m² | - |
* Rain latest hour (hover to see other rain measurements)
** Current wind speed in m/s (hover to see current wind gust speed)